Time,TemperatureF,DewpointF,PressureIn,WindDirection,WindDirectionDegrees,WindSpeedMPH,WindSpeedGustMPH,Humidity,HourlyPrecipIn,Conditions,Clouds,dailyrainin,SoftwareType,DateUTC
2013-02-03 00:03:00,28.2,24.0,30.10,WSW,257,1.0,1.0,84,0.00,,,0.00,Wunderground v.1.15,2013-02-03 05:03:00,
2013-02-03 00:06:00,28.1,23.9,30.10,WSW,252,0.0,1.0,84,0.00,,,0.00,Wunderground v.1.15,2013-02-03 05:06:00,
2013-02-03 00:11:00,28.0,24.1,30.10,WSW,254,0.0,0.0,85,0.00,,,0.00,Wunderground v.1.15,2013-02-03 05:11:00,
2013-02-03 00:17:00,27.7,23.8,30.10,WSW,252,0.0,0.0,85,0.00,,,0.00,Wunderground v.1.15,2013-02-03 05:17:00,
2013-02-03 00:19:00,27.7,24.1,30.10,WSW,252,0.0,0.0,86,0.00,,,0.00,Wunderground v.1.15,2013-02-03 05:19:00,
2013-02-03 00:25:00,27.6,24.0,30.10,WSW,252,0.0,0.0,86,0.00,,,0.00,Wunderground v.1.15,2013-02-03 05:25:00,
2013-02-03 00:31:00,27.4,23.8,30.10,WSW,252,0.0,0.0,86,0.00,,,0.00,Wunderground v.1.15,2013-02-03 05:31:00,
2013-02-03 00:37:00,27.3,23.7,30.10,WSW,252,0.0,0.0,86,0.00,,,0.00,Wunderground v.1.15,2013-02-03 05:37:00,
2013-02-03 00:43:00,27.3,23.9,30.10,WSW,252,0.0,0.0,87,0.00,,,0.00,Wunderground v.1.15,2013-02-03 05:43:00,
2013-02-03 00:48:00,27.3,23.9,30.10,WSW,252,0.0,0.0,87,0.00,,,0.00,Wunderground v.1.15,2013-02-03 05:48:00,
2013-02-03 00:54:00,27.2,23.8,30.09,WSW,252,0.0,0.0,87,0.00,,,0.00,Wunderground v.1.15,2013-02-03 05:54:00,
2013-02-03 01:00:00,27.1,23.7,30.09,WSW,252,0.0,0.0,87,0.00,,,0.00,Wunderground v.1.15,2013-02-03 06:00:00,
2013-02-03 01:06:00,27.1,23.7,30.09,WSW,252,0.0,0.0,87,0.00,,,0.00,Wunderground v.1.15,2013-02-03 06:06:00,
2013-02-03 01:11:00,27.1,24.0,30.09,WSW,252,0.0,0.0,88,0.00,,,0.00,Wunderground v.1.15,2013-02-03 06:11:00,
2013-02-03 01:17:00,27.0,23.9,30.09,SW,228,0.0,0.0,88,0.00,,,0.00,Wunderground v.1.15,2013-02-03 06:17:00,
2013-02-03 01:23:00,27.0,23.9,30.08,SW,229,0.0,0.0,88,0.00,,,0.00,Wunderground v.1.15,2013-02-03 06:23:00,
2013-02-03 01:28:00,27.1,24.0,30.08,SW,228,0.0,0.0,88,0.00,,,0.00,Wunderground v.1.15,2013-02-03 06:28:00,
2013-02-03 01:34:00,27.1,24.0,30.08,SW,236,0.0,0.0,88,0.00,,,0.00,Wunderground v.1.15,2013-02-03 06:34:00,
2013-02-03 01:40:00,27.0,23.9,30.07,SSW,201,0.0,0.0,88,0.00,,,0.00,Wunderground v.1.15,2013-02-03 06:40:00,
2013-02-03 01:46:00,26.7,23.6,30.07,South,187,0.0,1.0,88,0.00,,,0.00,Wunderground v.1.15,2013-02-03 06:46:00,
2013-02-03 01:52:00,26.7,23.6,30.07,WSW,239,0.0,0.0,88,0.00,,,0.00,Wunderground v.1.15,2013-02-03 06:52:00,
2013-02-03 01:58:00,26.7,23.9,30.07,WSW,243,0.0,0.0,89,0.00,,,0.00,Wunderground v.1.15,2013-02-03 06:58:00,
2013-02-03 02:04:00,26.9,24.1,30.07,SSW,204,0.0,0.0,89,0.00,,,0.00,Wunderground v.1.15,2013-02-03 07:04:00,
2013-02-03 02:09:00,27.1,24.3,30.06,South,174,0.0,1.0,89,0.00,,,0.00,Wunderground v.1.15,2013-02-03 07:09:00,
2013-02-03 02:15:00,27.2,24.4,30.07,SSW,192,0.0,1.0,89,0.00,,,0.00,Wunderground v.1.15,2013-02-03 07:15:00,
2013-02-03 02:20:00,27.2,24.4,30.07,South,186,0.0,0.0,89,0.00,,,0.00,Wunderground v.1.15,2013-02-03 07:20:00,
2013-02-03 02:26:00,27.3,24.5,30.07,SW,227,0.0,1.0,89,0.00,,,0.00,Wunderground v.1.15,2013-02-03 07:26:00,
2013-02-03 02:31:00,27.4,24.6,30.07,SSE,153,0.0,1.0,89,0.00,,,0.00,Wunderground v.1.15,2013-02-03 07:31:00,
2013-02-03 02:36:00,27.5,24.7,30.06,SW,221,0.0,1.0,89,0.00,,,0.00,Wunderground v.1.15,2013-02-03 07:36:00,
2013-02-03 02:42:00,27.6,24.8,30.06,SSW,212,1.0,1.0,89,0.00,,,0.00,Wunderground v.1.15,2013-02-03 07:42:00,
2013-02-03 02:48:00,27.7,24.9,30.06,South,175,1.0,2.0,89,0.00,,,0.00,Wunderground v.1.15,2013-02-03 07:48:00,
2013-02-03 02:54:00,27.8,25.0,30.06,SSW,194,1.0,2.0,89,0.00,,,0.00,Wunderground v.1.15,2013-02-03 07:54:00,
2013-02-03 02:59:00,27.9,25.1,30.05,SSW,197,1.0,4.0,89,0.00,,,0.00,Wunderground v.1.15,2013-02-03 07:59:00,
2013-02-03 03:05:00,28.0,25.2,30.05,SW,229,2.0,3.0,89,0.00,,,0.00,Wunderground v.1.15,2013-02-03 08:05:00,
2013-02-03 03:11:00,28.0,25.2,30.05,South,177,1.0,4.0,89,0.00,,,0.00,Wunderground v.1.15,2013-02-03 08:11:00,
2013-02-03 03:17:00,27.9,25.1,30.05,WSW,248,1.0,4.0,89,0.00,,,0.00,Wunderground v.1.15,2013-02-03 08:17:00,
2013-02-03 03:23:00,27.8,25.0,30.04,SSW,210,1.0,3.0,89,0.00,,,0.00,Wunderground v.1.15,2013-02-03 08:23:00,
2013-02-03 03:29:00,27.7,24.9,30.04,WSW,248,1.0,3.0,89,0.00,,,0.00,Wunderground v.1.15,2013-02-03 08:29:00,
2013-02-03 03:34:00,27.7,24.9,30.04,South,184,1.0,2.0,89,0.00,,,0.00,Wunderground v.1.15,2013-02-03 08:34:00,
2013-02-03 03:39:00,27.7,25.2,30.04,WSW,238,1.0,2.0,90,0.00,,,0.00,Wunderground v.1.15,2013-02-03 08:39:00,
2013-02-03 03:45:00,27.7,25.2,30.03,WSW,242,1.0,2.0,90,0.00,,,0.00,Wunderground v.1.15,2013-02-03 08:45:00,
2013-02-03 03:50:00,27.6,25.1,30.03,WSW,243,1.0,1.0,90,0.00,,,0.00,Wunderground v.1.15,2013-02-03 08:50:00,
2013-02-03 03:56:00,27.7,25.2,30.03,WSW,244,1.0,2.0,90,0.00,,,0.00,Wunderground v.1.15,2013-02-03 08:56:00,
2013-02-03 04:02:00,28.0,25.4,30.02,WSW,242,2.0,2.0,90,0.00,,,0.00,Wunderground v.1.15,2013-02-03 09:02:00,
2013-02-03 04:07:00,28.2,25.6,30.02,WSW,239,2.0,3.0,90,0.00,,,0.00,Wunderground v.1.15,2013-02-03 09:07:00,
2013-02-03 04:13:00,28.4,25.6,30.02,West,259,2.0,3.0,89,0.00,,,0.00,Wunderground v.1.15,2013-02-03 09:13:00,
2013-02-03 04:18:00,28.6,25.5,30.02,West,266,3.0,7.0,88,0.00,,,0.00,Wunderground v.1.15,2013-02-03 09:18:00,
2013-02-03 04:24:00,28.9,25.8,30.02,WSW,239,3.0,5.0,88,0.00,,,0.00,Wunderground v.1.15,2013-02-03 09:24:00,
2013-02-03 04:30:00,29.1,25.7,30.01,WSW,246,3.0,3.0,87,0.00,,,0.00,Wunderground v.1.15,2013-02-03 09:30:00,
2013-02-03 04:36:00,29.2,25.8,30.01,WSW,248,4.0,4.0,87,0.00,,,0.00,Wunderground v.1.15,2013-02-03 09:36:00,
2013-02-03 04:42:00,29.2,25.8,30.01,WSW,250,4.0,5.0,87,0.00,,,0.00,Wunderground v.1.15,2013-02-03 09:42:00,
2013-02-03 04:47:00,29.1,25.4,30.01,WSW,240,3.0,6.0,86,0.00,,,0.00,Wunderground v.1.15,2013-02-03 09:47:00,
2013-02-03 04:53:00,29.2,25.5,30.01,WSW,245,3.0,6.0,86,0.00,,,0.00,Wunderground v.1.15,2013-02-03 09:53:00,
2013-02-03 04:59:00,29.2,25.3,30.01,WSW,253,4.0,6.0,85,0.00,,,0.00,Wunderground v.1.15,2013-02-03 09:59:00,
2013-02-03 05:04:00,29.1,25.2,30.00,WSW,257,4.0,5.0,85,0.00,,,0.00,Wunderground v.1.15,2013-02-03 10:04:00,
2013-02-03 05:10:00,29.1,25.2,30.00,West,281,4.0,4.0,85,0.00,,,0.00,Wunderground v.1.15,2013-02-03 10:10:00,
2013-02-03 05:16:00,29.0,25.1,30.00,WSW,245,4.0,5.0,85,0.00,,,0.00,Wunderground v.1.15,2013-02-03 10:16:00,
2013-02-03 05:22:00,29.0,24.5,30.00,WSW,240,5.0,8.0,83,0.00,,,0.00,Wunderground v.1.15,2013-02-03 10:22:00,
2013-02-03 05:27:00,29.0,24.5,30.00,WSW,248,5.0,8.0,83,0.00,,,0.00,Wunderground v.1.15,2013-02-03 10:27:00,
2013-02-03 05:33:00,29.0,24.5,30.00,West,266,5.0,7.0,83,0.00,,,0.00,Wunderground v.1.15,2013-02-03 10:33:00,
2013-02-03 05:38:00,29.0,24.5,30.00,WSW,257,5.0,8.0,83,0.00,,,0.00,Wunderground v.1.15,2013-02-03 10:38:00,
2013-02-03 05:44:00,28.9,24.1,30.00,WSW,242,5.0,6.0,82,0.00,,,0.00,Wunderground v.1.15,2013-02-03 10:44:00,
2013-02-03 05:51:00,28.8,24.0,30.00,WSW,248,5.0,5.0,82,0.00,,,0.00,Wunderground v.1.15,2013-02-03 10:51:00,
2013-02-03 05:57:00,28.8,24.0,30.00,West,267,5.0,8.0,82,0.00,,,0.00,Wunderground v.1.15,2013-02-03 10:57:00,
2013-02-03 06:03:00,28.7,23.9,30.00,WSW,253,5.0,8.0,82,0.00,,,0.00,Wunderground v.1.15,2013-02-03 11:03:00,
2013-02-03 06:09:00,28.6,24.1,30.00,West,269,6.0,8.0,83,0.00,,,0.00,Wunderground v.1.15,2013-02-03 11:09:00,
2013-02-03 06:14:00,28.6,24.1,30.00,WNW,293,5.0,6.0,83,0.00,,,0.00,Wunderground v.1.15,2013-02-03 11:14:00,
2013-02-03 06:20:00,28.6,24.4,29.99,WSW,250,5.0,8.0,84,0.00,,,0.00,Wunderground v.1.15,2013-02-03 11:20:00,
2013-02-03 06:27:00,28.5,24.3,30.00,West,272,4.0,7.0,84,0.00,,,0.00,Wunderground v.1.15,2013-02-03 11:27:00,
2013-02-03 06:32:00,28.5,24.6,30.00,West,278,4.0,6.0,85,0.00,,,0.00,Wunderground v.1.15,2013-02-03 11:32:00,
2013-02-03 06:38:00,28.4,24.5,30.00,WSW,249,4.0,6.0,85,0.00,,,0.00,Wunderground v.1.15,2013-02-03 11:38:00,
2013-02-03 06:43:00,28.4,24.5,29.99,WSW,246,4.0,6.0,85,0.00,,,0.00,Wunderground v.1.15,2013-02-03 11:43:00,
2013-02-03 06:48:00,28.4,24.5,29.99,West,266,4.0,6.0,85,0.00,,,0.00,Wunderground v.1.15,2013-02-03 11:48:00,
2013-02-03 06:54:00,28.3,24.4,29.99,WSW,243,3.0,6.0,85,0.00,,,0.00,Wunderground v.1.15,2013-02-03 11:54:00,
2013-02-03 07:00:00,28.3,24.4,29.99,WSW,248,3.0,3.0,85,0.00,,,0.00,Wunderground v.1.15,2013-02-03 12:00:00,
2013-02-03 07:06:00,28.3,24.6,29.99,West,270,3.0,6.0,86,0.00,,,0.00,Wunderground v.1.15,2013-02-03 12:06:00,
2013-02-03 07:12:00,28.3,24.4,29.99,WSW,238,4.0,5.0,85,0.00,,,0.00,Wunderground v.1.15,2013-02-03 12:12:00,
2013-02-03 07:19:00,28.3,24.4,30.00,West,267,4.0,6.0,85,0.00,,,0.00,Wunderground v.1.15,2013-02-03 12:19:00,
2013-02-03 07:25:00,28.4,24.5,30.00,West,271,4.0,4.0,85,0.00,,,0.00,Wunderground v.1.15,2013-02-03 12:25:00,
2013-02-03 07:30:00,28.3,24.4,30.00,WSW,253,4.0,4.0,85,0.00,,,0.00,Wunderground v.1.15,2013-02-03 12:30:00,
2013-02-03 07:37:00,28.3,24.4,30.00,West,273,4.0,4.0,85,0.00,,,0.00,Wunderground v.1.15,2013-02-03 12:37:00,
2013-02-03 07:42:00,28.3,24.4,30.00,West,269,4.0,7.0,85,0.00,,,0.00,Wunderground v.1.15,2013-02-03 12:42:00,
2013-02-03 07:48:00,28.3,24.4,30.00,WSW,253,4.0,7.0,85,0.00,,,0.00,Wunderground v.1.15,2013-02-03 12:48:00,
2013-02-03 07:53:00,28.3,24.4,30.00,West,269,4.0,6.0,85,0.00,,,0.00,Wunderground v.1.15,2013-02-03 12:53:00,
2013-02-03 07:59:00,28.3,24.4,30.00,WSW,252,4.0,6.0,85,0.00,,,0.00,Wunderground v.1.15,2013-02-03 12:59:00,
2013-02-03 08:05:00,28.3,24.4,30.00,West,259,4.0,5.0,85,0.00,,,0.00,Wunderground v.1.15,2013-02-03 13:05:00,
2013-02-03 08:11:00,28.3,24.4,30.00,West,281,4.0,5.0,85,0.00,,,0.00,Wunderground v.1.15,2013-02-03 13:11:00,
2013-02-03 08:17:00,28.3,24.6,30.01,WNW,297,4.0,6.0,86,0.00,,,0.00,Wunderground v.1.15,2013-02-03 13:17:00,
2013-02-03 08:23:00,28.2,24.6,30.01,West,263,4.0,6.0,86,0.00,,,0.00,Wunderground v.1.15,2013-02-03 13:23:00,
2013-02-03 08:28:00,28.2,24.6,30.01,WNW,284,3.0,6.0,86,0.00,,,0.00,Wunderground v.1.15,2013-02-03 13:28:00,
2013-02-03 08:33:00,28.1,24.5,30.01,WNW,283,4.0,5.0,86,0.00,,,0.00,Wunderground v.1.15,2013-02-03 13:33:00,
2013-02-03 08:39:00,28.1,24.5,30.01,WNW,291,4.0,5.0,86,0.00,,,0.00,Wunderground v.1.15,2013-02-03 13:39:00,
2013-02-03 08:45:00,28.0,24.4,30.01,WNW,298,4.0,6.0,86,0.00,,,0.00,Wunderground v.1.15,2013-02-03 13:45:00,
2013-02-03 08:50:00,28.0,24.4,30.01,WNW,298,4.0,4.0,86,0.00,,,0.00,Wunderground v.1.15,2013-02-03 13:50:00,
2013-02-03 08:56:00,27.9,24.3,30.01,WNW,291,4.0,5.0,86,0.00,,,0.00,Wunderground v.1.15,2013-02-03 13:56:00,
2013-02-03 09:01:00,27.8,24.2,30.01,WNW,288,3.0,4.0,86,0.00,,,0.00,Wunderground v.1.15,2013-02-03 14:01:00,
2013-02-03 09:07:00,27.7,24.1,30.02,West,276,3.0,4.0,86,0.00,,,0.00,Wunderground v.1.15,2013-02-03 14:07:00,
2013-02-03 09:13:00,27.6,24.0,30.02,WNW,297,4.0,5.0,86,0.00,,,0.00,Wunderground v.1.15,2013-02-03 14:13:00,
2013-02-03 09:18:00,27.6,23.7,30.01,WNW,297,4.0,6.0,85,0.00,,,0.00,Wunderground v.1.15,2013-02-03 14:18:00,
2013-02-03 09:24:00,27.6,23.7,30.02,West,281,4.0,7.0,85,0.00,,,0.00,Wunderground v.1.15,2013-02-03 14:24:00,
2013-02-03 09:30:00,27.5,23.6,30.02,West,276,4.0,4.0,85,0.00,,,0.00,Wunderground v.1.15,2013-02-03 14:30:00,
2013-02-03 09:35:00,27.4,23.5,30.02,WNW,291,4.0,6.0,85,0.00,,,0.00,Wunderground v.1.15,2013-02-03 14:35:00,
2013-02-03 09:40:00,27.4,23.5,30.02,WNW,297,4.0,5.0,85,0.00,,,0.00,Wunderground v.1.15,2013-02-03 14:40:00,
2013-02-03 09:46:00,27.5,23.6,30.02,West,271,3.0,5.0,85,0.00,,,0.00,Wunderground v.1.15,2013-02-03 14:46:00,
2013-02-03 09:51:00,27.5,23.3,30.02,West,264,3.0,5.0,84,0.00,,,0.00,Wunderground v.1.15,2013-02-03 14:51:00,
2013-02-03 09:57:00,27.4,23.2,30.01,WNW,300,5.0,10.0,84,0.00,,,0.00,Wunderground v.1.15,2013-02-03 14:57:00,
2013-02-03 10:03:00,27.4,23.2,30.02,West,263,5.0,6.0,84,0.00,,,0.00,Wunderground v.1.15,2013-02-03 15:03:00,
2013-02-03 10:09:00,27.3,23.1,30.02,West,276,5.0,6.0,84,0.00,,,0.00,Wunderground v.1.15,2013-02-03 15:09:00,
2013-02-03 10:15:00,27.3,23.1,30.02,WNW,293,4.0,5.0,84,0.00,,,0.00,Wunderground v.1.15,2013-02-03 15:15:00,
2013-02-03 10:20:00,27.4,23.2,30.02,West,276,4.0,4.0,84,0.00,,,0.00,Wunderground v.1.15,2013-02-03 15:20:00,
2013-02-03 10:26:00,27.4,23.2,30.02,NW,315,4.0,6.0,84,0.00,,,0.00,Wunderground v.1.15,2013-02-03 15:26:00,
2013-02-03 10:31:00,27.3,22.8,30.02,WNW,284,5.0,9.0,83,0.00,,,0.00,Wunderground v.1.15,2013-02-03 15:31:00,
2013-02-03 10:37:00,27.2,22.7,30.03,WNW,283,6.0,10.0,83,0.00,,,0.00,Wunderground v.1.15,2013-02-03 15:37:00,
2013-02-03 10:43:00,27.1,22.6,30.02,WNW,283,6.0,6.0,83,0.00,,,0.00,Wunderground v.1.15,2013-02-03 15:43:00,
2013-02-03 10:49:00,27.1,22.3,30.03,WNW,302,5.0,9.0,82,0.00,,,0.00,Wunderground v.1.15,2013-02-03 15:49:00,
2013-02-03 10:55:00,27.1,22.6,30.03,WNW,291,6.0,7.0,83,0.00,,,0.00,Wunderground v.1.15,2013-02-03 15:55:00,
2013-02-03 11:00:00,27.2,22.7,30.03,West,276,6.0,6.0,83,0.00,,,0.00,Wunderground v.1.15,2013-02-03 16:00:00,
2013-02-03 11:06:00,27.3,22.8,30.03,WNW,293,5.0,8.0,83,0.00,,,0.00,Wunderground v.1.15,2013-02-03 16:06:00,
2013-02-03 11:11:00,27.4,22.9,30.03,West,276,5.0,5.0,83,0.00,,,0.00,Wunderground v.1.15,2013-02-03 16:11:00,
2013-02-03 11:17:00,27.4,22.9,30.03,West,276,4.0,8.0,83,0.00,,,0.00,Wunderground v.1.15,2013-02-03 16:17:00,
2013-02-03 11:23:00,27.5,22.7,30.03,WNW,300,5.0,5.0,82,0.00,,,0.00,Wunderground v.1.15,2013-02-03 16:23:00,
2013-02-03 11:29:00,27.5,22.7,30.04,WNW,293,5.0,7.0,82,0.00,,,0.00,Wunderground v.1.15,2013-02-03 16:29:00,
2013-02-03 11:34:00,27.6,22.8,30.04,WNW,288,4.0,5.0,82,0.00,,,0.00,Wunderground v.1.15,2013-02-03 16:34:00,
2013-02-03 11:39:00,27.7,22.6,30.03,WNW,293,4.0,6.0,81,0.00,,,0.00,Wunderground v.1.15,2013-02-03 16:39:00,
2013-02-03 11:44:00,27.7,22.3,30.03,WNW,295,4.0,7.0,80,0.00,,,0.00,Wunderground v.1.15,2013-02-03 16:44:00,
2013-02-03 11:50:00,27.8,22.4,30.03,WNW,288,5.0,5.0,80,0.00,,,0.00,Wunderground v.1.15,2013-02-03 16:50:00,
2013-02-03 11:55:00,28.0,22.6,30.03,WNW,293,4.0,5.0,80,0.00,,,0.00,Wunderground v.1.15,2013-02-03 16:55:00,
2013-02-03 12:00:00,28.0,22.6,30.03,NW,320,4.0,5.0,80,0.00,,,0.00,Wunderground v.1.15,2013-02-03 17:00:00,
2013-02-03 12:06:00,28.0,22.6,30.03,West,281,5.0,7.0,80,0.00,,,0.00,Wunderground v.1.15,2013-02-03 17:06:00,
2013-02-03 12:11:00,28.0,22.6,30.02,NW,305,5.0,5.0,80,0.00,,,0.00,Wunderground v.1.15,2013-02-03 17:11:00,
2013-02-03 12:17:00,28.0,22.9,30.03,WNW,295,5.0,8.0,81,0.00,,,0.00,Wunderground v.1.15,2013-02-03 17:17:00,
2013-02-03 12:23:00,28.1,22.7,30.03,WNW,299,5.0,5.0,80,0.00,,,0.00,Wunderground v.1.15,2013-02-03 17:23:00,
2013-02-03 12:29:00,28.3,22.9,30.03,WNW,287,4.0,5.0,80,0.00,,,0.00,Wunderground v.1.15,2013-02-03 17:29:00,
2013-02-03 12:35:00,28.4,23.0,30.03,West,276,4.0,7.0,80,0.00,,,0.00,Wunderground v.1.15,2013-02-03 17:35:00,
2013-02-03 12:41:00,28.4,23.0,30.03,West,281,5.0,6.0,80,0.00,,,0.00,Wunderground v.1.15,2013-02-03 17:41:00,
2013-02-03 12:47:00,28.3,23.2,30.03,NW,304,5.0,8.0,81,0.00,,,0.00,Wunderground v.1.15,2013-02-03 17:47:00,
2013-02-03 12:53:00,28.3,22.9,30.04,West,281,6.0,7.0,80,0.00,,,0.00,Wunderground v.1.15,2013-02-03 17:53:00,
2013-02-03 12:59:00,28.4,23.6,30.04,West,259,5.0,7.0,82,0.00,,,0.00,Wunderground v.1.15,2013-02-03 17:59:00,
2013-02-03 13:05:00,28.5,23.7,30.04,WNW,290,5.0,8.0,82,0.00,,,0.00,Wunderground v.1.15,2013-02-03 18:05:00,
2013-02-03 13:10:00,28.5,23.7,30.04,West,276,6.0,6.0,82,0.00,,,0.00,Wunderground v.1.15,2013-02-03 18:10:00,
2013-02-03 13:16:00,28.6,23.8,30.04,West,265,6.0,9.0,82,0.00,,,0.00,Wunderground v.1.15,2013-02-03 18:16:00,
2013-02-03 13:22:00,28.6,23.5,30.04,WSW,251,6.0,11.0,81,0.00,,,0.00,Wunderground v.1.15,2013-02-03 18:22:00,
2013-02-03 13:28:00,28.6,23.8,30.05,West,274,7.0,11.0,82,0.00,,,0.00,Wunderground v.1.15,2013-02-03 18:28:00,
2013-02-03 13:34:00,28.7,23.9,30.05,WNW,290,7.0,9.0,82,0.00,,,0.00,Wunderground v.1.15,2013-02-03 18:34:00,
2013-02-03 13:39:00,28.7,24.2,30.05,WNW,283,7.0,10.0,83,0.00,,,0.00,Wunderground v.1.15,2013-02-03 18:39:00,
2013-02-03 13:45:00,28.7,23.9,30.05,West,261,7.0,8.0,82,0.00,,,0.00,Wunderground v.1.15,2013-02-03 18:45:00,
2013-02-03 13:51:00,28.6,24.1,30.05,WSW,255,7.0,7.0,83,0.00,,,0.00,Wunderground v.1.15,2013-02-03 18:51:00,
2013-02-03 13:57:00,28.6,24.1,30.05,WSW,252,7.0,10.0,83,0.00,,,0.00,Wunderground v.1.15,2013-02-03 18:57:00,
2013-02-03 14:02:00,28.5,23.7,30.04,WSW,249,7.0,8.0,82,0.00,,,0.00,Wunderground v.1.15,2013-02-03 19:02:00,
2013-02-03 14:08:00,28.5,24.0,30.05,West,266,7.0,8.0,83,0.00,,,0.01,Wunderground v.1.15,2013-02-03 19:08:00,
2013-02-03 14:13:00,28.4,23.9,30.05,West,270,7.0,11.0,83,0.00,,,0.01,Wunderground v.1.15,2013-02-03 19:13:00,
2013-02-03 14:19:00,28.4,23.9,30.05,WSW,250,6.0,11.0,83,0.00,,,0.01,Wunderground v.1.15,2013-02-03 19:19:00,
2013-02-03 14:24:00,28.3,23.8,30.05,West,262,6.0,8.0,83,0.00,,,0.01,Wunderground v.1.15,2013-02-03 19:24:00,
2013-02-03 14:30:00,28.3,24.1,30.06,West,259,6.0,6.0,84,0.00,,,0.01,Wunderground v.1.15,2013-02-03 19:30:00,
2013-02-03 14:36:00,28.3,23.8,30.06,West,276,6.0,7.0,83,0.00,,,0.01,Wunderground v.1.15,2013-02-03 19:36:00,
2013-02-03 14:42:00,28.3,23.8,30.06,WNW,287,6.0,8.0,83,0.00,,,0.01,Wunderground v.1.15,2013-02-03 19:42:00,
2013-02-03 14:48:00,28.2,23.7,30.06,WNW,302,6.0,12.0,83,0.00,,,0.01,Wunderground v.1.15,2013-02-03 19:48:00,
2013-02-03 14:53:00,28.2,23.7,30.07,West,262,6.0,7.0,83,0.00,,,0.01,Wunderground v.1.15,2013-02-03 19:53:00,
2013-02-03 14:58:00,28.1,23.6,30.07,WNW,290,7.0,8.0,83,0.00,,,0.01,Wunderground v.1.15,2013-02-03 19:58:00,
2013-02-03 15:03:00,28.1,23.9,30.07,WNW,295,8.0,10.0,84,0.00,,,0.01,Wunderground v.1.15,2013-02-03 20:03:00,
2013-02-03 15:09:00,28.0,23.8,30.08,WNW,291,9.0,11.0,84,0.00,,,0.01,Wunderground v.1.15,2013-02-03 20:09:00,
2013-02-03 15:14:00,28.0,23.8,30.08,West,261,8.0,11.0,84,0.00,,,0.01,Wunderground v.1.15,2013-02-03 20:14:00,
2013-02-03 15:20:00,28.0,23.8,30.08,WNW,300,7.0,7.0,84,0.00,,,0.01,Wunderground v.1.15,2013-02-03 20:20:00,
2013-02-03 15:26:00,28.0,23.8,30.08,West,260,7.0,10.0,84,0.00,,,0.01,Wunderground v.1.15,2013-02-03 20:26:00,
2013-02-03 15:32:00,28.0,23.8,30.08,WNW,287,7.0,7.0,84,0.00,,,0.01,Wunderground v.1.15,2013-02-03 20:32:00,
2013-02-03 15:37:00,28.0,23.8,30.09,NW,308,7.0,8.0,84,0.00,,,0.01,Wunderground v.1.15,2013-02-03 20:37:00,
2013-02-03 15:43:00,27.9,24.0,30.09,WNW,291,7.0,11.0,85,0.00,,,0.01,Wunderground v.1.15,2013-02-03 20:43:00,
2013-02-03 15:49:00,27.9,24.0,30.09,West,280,7.0,11.0,85,0.00,,,0.01,Wunderground v.1.15,2013-02-03 20:49:00,
2013-02-03 15:54:00,28.0,24.1,30.09,WNW,282,6.0,9.0,85,0.00,,,0.01,Wunderground v.1.15,2013-02-03 20:54:00,
2013-02-03 16:01:00,28.0,24.1,30.09,West,281,5.0,7.0,85,0.00,,,0.01,Wunderground v.1.15,2013-02-03 21:01:00,
2013-02-03 16:06:00,27.9,24.0,30.09,WNW,287,5.0,16.0,85,0.00,,,0.01,Wunderground v.1.15,2013-02-03 21:06:00,
2013-02-03 16:12:00,27.9,24.0,30.10,West,259,6.0,16.0,85,0.00,,,0.01,Wunderground v.1.15,2013-02-03 21:12:00,
2013-02-03 16:18:00,27.8,24.2,30.10,WNW,297,5.0,16.0,86,0.00,,,0.01,Wunderground v.1.15,2013-02-03 21:18:00,
2013-02-03 16:24:00,27.8,24.2,30.10,WNW,291,5.0,16.0,86,0.00,,,0.01,Wunderground v.1.15,2013-02-03 21:24:00,
2013-02-03 16:29:00,27.7,24.3,30.11,WNW,283,5.0,16.0,87,0.00,,,0.01,Wunderground v.1.15,2013-02-03 21:29:00,
2013-02-03 16:35:00,27.7,24.3,30.10,WNW,290,5.0,16.0,87,0.00,,,0.01,Wunderground v.1.15,2013-02-03 21:35:00,
2013-02-03 16:40:00,27.7,24.6,30.11,WNW,284,5.0,16.0,88,0.00,,,0.01,Wunderground v.1.15,2013-02-03 21:40:00,
2013-02-03 16:46:00,27.7,24.6,30.11,WNW,283,4.0,16.0,88,0.00,,,0.01,Wunderground v.1.15,2013-02-03 21:46:00,
2013-02-03 16:52:00,27.5,24.7,30.11,WNW,300,5.0,16.0,89,0.00,,,0.01,Wunderground v.1.15,2013-02-03 21:52:00,
2013-02-03 16:58:00,27.4,24.9,30.11,West,278,5.0,16.0,90,0.00,,,0.01,Wunderground v.1.15,2013-02-03 21:58:00,
2013-02-03 17:03:00,27.4,25.1,30.11,West,278,4.0,4.0,91,0.00,,,0.01,Wunderground v.1.15,2013-02-03 22:03:00,
2013-02-03 17:09:00,27.3,25.0,30.11,WNW,293,3.0,6.0,91,0.00,,,0.01,Wunderground v.1.15,2013-02-03 22:09:00,
2013-02-03 17:15:00,27.3,25.0,30.11,WNW,287,3.0,5.0,91,0.00,,,0.01,Wunderground v.1.15,2013-02-03 22:15:00,
2013-02-03 17:22:00,27.2,24.9,30.12,West,270,4.0,4.0,91,0.00,,,0.01,Wunderground v.1.15,2013-02-03 22:22:00,
2013-02-03 17:28:00,27.3,24.8,30.12,West,266,6.0,12.0,90,0.00,,,0.01,Wunderground v.1.15,2013-02-03 22:28:00,
2013-02-03 17:34:00,27.3,24.5,30.12,NW,304,7.0,9.0,89,0.00,,,0.01,Wunderground v.1.15,2013-02-03 22:34:00,
2013-02-03 17:40:00,27.4,24.0,30.12,West,265,8.0,12.0,87,0.00,,,0.01,Wunderground v.1.15,2013-02-03 22:40:00,
2013-02-03 17:46:00,27.4,24.0,30.13,WSW,248,8.0,9.0,87,0.00,,,0.01,Wunderground v.1.15,2013-02-03 22:46:00,
2013-02-03 17:52:00,27.4,23.5,30.13,West,269,8.0,8.0,85,0.00,,,0.01,Wunderground v.1.15,2013-02-03 22:52:00,
2013-02-03 17:58:00,27.4,22.9,30.13,WNW,289,8.0,13.0,83,0.00,,,0.01,Wunderground v.1.15,2013-02-03 22:58:00,
2013-02-03 18:03:00,27.4,22.6,30.14,NW,305,8.0,10.0,82,0.00,,,0.01,Wunderground v.1.15,2013-02-03 23:03:00,
2013-02-03 18:09:00,27.4,22.0,30.14,WNW,288,7.0,10.0,80,0.00,,,0.01,Wunderground v.1.15,2013-02-03 23:09:00,
2013-02-03 18:15:00,27.2,21.5,30.14,WNW,297,8.0,12.0,79,0.00,,,0.01,Wunderground v.1.15,2013-02-03 23:15:00,
2013-02-03 18:21:00,27.1,21.5,30.14,WNW,288,8.0,9.0,79,0.00,,,0.01,Wunderground v.1.15,2013-02-03 23:21:00,
2013-02-03 18:26:00,27.1,21.5,30.15,WNW,285,7.0,11.0,79,0.00,,,0.01,Wunderground v.1.15,2013-02-03 23:26:00,
2013-02-03 18:32:00,27.0,21.1,30.15,West,276,6.0,9.0,78,0.00,,,0.01,Wunderground v.1.15,2013-02-03 23:32:00,
2013-02-03 18:38:00,27.0,20.7,30.16,WNW,297,7.0,9.0,77,0.00,,,0.01,Wunderground v.1.15,2013-02-03 23:38:00,
2013-02-03 18:44:00,27.0,20.7,30.16,WNW,293,6.0,7.0,77,0.00,,,0.01,Wunderground v.1.15,2013-02-03 23:44:00,
2013-02-03 18:51:00,26.9,21.0,30.16,WNW,284,5.0,5.0,78,0.00,,,0.01,Wunderground v.1.15,2013-02-03 23:51:00,
2013-02-03 18:56:00,26.8,20.9,30.16,West,281,5.0,6.0,78,0.00,,,0.01,Wunderground v.1.15,2013-02-03 23:56:00,
2013-02-03 19:02:00,26.8,21.2,30.16,West,276,5.0,5.0,79,0.00,,,0.01,Wunderground v.1.15,2013-02-04 00:02:00,
2013-02-03 19:08:00,26.8,21.5,30.17,WNW,291,5.0,5.0,80,0.00,,,0.01,Wunderground v.1.15,2013-02-04 00:08:00,
2013-02-03 19:14:00,26.7,21.4,30.17,WSW,253,4.0,4.0,80,0.00,,,0.01,Wunderground v.1.15,2013-02-04 00:14:00,
2013-02-03 19:20:00,26.8,21.5,30.17,WNW,282,4.0,8.0,80,0.00,,,0.01,Wunderground v.1.15,2013-02-04 00:20:00,
2013-02-03 19:25:00,26.8,21.8,30.17,WSW,245,4.0,8.0,81,0.00,,,0.01,Wunderground v.1.15,2013-02-04 00:25:00,
2013-02-03 19:31:00,26.8,21.8,30.18,West,269,5.0,5.0,81,0.00,,,0.01,Wunderground v.1.15,2013-02-04 00:31:00,
2013-02-03 19:37:00,26.7,21.9,30.18,SW,233,5.0,8.0,82,0.00,,,0.01,Wunderground v.1.15,2013-02-04 00:37:00,
2013-02-03 19:43:00,26.7,21.9,30.18,West,281,5.0,8.0,82,0.00,,,0.01,Wunderground v.1.15,2013-02-04 00:43:00,
2013-02-03 19:49:00,26.7,21.9,30.18,West,265,5.0,8.0,82,0.00,,,0.01,Wunderground v.1.15,2013-02-04 00:49:00,
2013-02-03 19:54:00,26.7,21.9,30.18,West,281,5.0,8.0,82,0.00,,,0.01,Wunderground v.1.15,2013-02-04 00:54:00,
2013-02-03 19:59:00,26.6,21.8,30.19,WNW,291,5.0,8.0,82,0.00,,,0.01,Wunderground v.1.15,2013-02-04 00:59:00,
2013-02-03 20:06:00,26.6,22.1,30.19,West,267,4.0,6.0,83,0.00,,,0.01,Wunderground v.1.15,2013-02-04 01:06:00,
2013-02-03 20:11:00,26.6,22.1,30.19,West,259,4.0,4.0,83,0.00,,,0.01,Wunderground v.1.15,2013-02-04 01:11:00,
2013-02-03 20:17:00,26.5,22.0,30.19,WNW,284,3.0,4.0,83,0.00,,,0.01,Wunderground v.1.15,2013-02-04 01:17:00,
2013-02-03 20:23:00,26.4,22.2,30.18,West,265,2.0,4.0,84,0.00,,,0.01,Wunderground v.1.15,2013-02-04 01:23:00,
2013-02-03 20:29:00,26.4,22.2,30.19,WSW,243,3.0,4.0,84,0.00,,,0.01,Wunderground v.1.15,2013-02-04 01:29:00,
2013-02-03 20:34:00,26.3,22.1,30.19,West,266,2.0,3.0,84,0.00,,,0.01,Wunderground v.1.15,2013-02-04 01:34:00,
2013-02-03 20:39:00,26.4,22.2,30.19,WSW,242,3.0,4.0,84,0.00,,,0.01,Wunderground v.1.15,2013-02-04 01:39:00,
2013-02-03 20:45:00,26.4,22.2,30.19,West,274,3.0,6.0,84,0.00,,,0.01,Wunderground v.1.15,2013-02-04 01:45:00,
2013-02-03 20:51:00,26.4,22.5,30.19,West,270,3.0,4.0,85,0.00,,,0.01,Wunderground v.1.15,2013-02-04 01:51:00,
2013-02-03 20:57:00,26.4,22.5,30.19,West,265,3.0,4.0,85,0.00,,,0.01,Wunderground v.1.15,2013-02-04 01:57:00,
2013-02-03 21:02:00,26.3,22.4,30.19,WSW,248,3.0,3.0,85,0.00,,,0.01,Wunderground v.1.15,2013-02-04 02:02:00,
2013-02-03 21:08:00,26.2,22.6,30.19,West,263,2.0,3.0,86,0.00,,,0.01,Wunderground v.1.15,2013-02-04 02:08:00,
2013-02-03 21:14:00,26.2,22.6,30.19,SW,231,2.0,2.0,86,0.00,,,0.01,Wunderground v.1.15,2013-02-04 02:14:00,
2013-02-03 21:20:00,26.2,22.3,30.19,WNW,283,2.0,3.0,85,0.00,,,0.01,Wunderground v.1.15,2013-02-04 02:20:00,
2013-02-03 21:26:00,26.2,22.3,30.19,West,276,2.0,3.0,85,0.00,,,0.01,Wunderground v.1.15,2013-02-04 02:26:00,
2013-02-03 21:31:00,26.1,22.2,30.20,WSW,256,2.0,4.0,85,0.00,,,0.01,Wunderground v.1.15,2013-02-04 02:31:00,
2013-02-03 21:37:00,26.1,22.2,30.19,West,259,2.0,4.0,85,0.00,,,0.01,Wunderground v.1.15,2013-02-04 02:37:00,
2013-02-03 21:43:00,26.0,22.1,30.19,WSW,239,2.0,3.0,85,0.00,,,0.01,Wunderground v.1.15,2013-02-04 02:43:00,
2013-02-03 21:49:00,26.1,22.2,30.20,WSW,250,2.0,3.0,85,0.00,,,0.01,Wunderground v.1.15,2013-02-04 02:49:00,
2013-02-03 21:55:00,26.1,21.9,30.20,WSW,243,2.0,4.0,84,0.00,,,0.01,Wunderground v.1.15,2013-02-04 02:55:00,
2013-02-03 22:00:00,26.1,21.9,30.20,WSW,242,3.0,3.0,84,0.00,,,0.01,Wunderground v.1.15,2013-02-04 03:00:00,
2013-02-03 22:07:00,26.2,22.0,30.20,WSW,243,3.0,5.0,84,0.00,,,0.01,Wunderground v.1.15,2013-02-04 03:07:00,
2013-02-03 22:12:00,26.3,22.1,30.20,West,280,2.0,3.0,84,0.00,,,0.01,Wunderground v.1.15,2013-02-04 03:12:00,
2013-02-03 22:18:00,26.3,21.8,30.20,WNW,291,2.0,3.0,83,0.00,,,0.01,Wunderground v.1.15,2013-02-04 03:18:00,
2013-02-03 22:23:00,26.2,21.7,30.20,West,278,2.0,3.0,83,0.00,,,0.01,Wunderground v.1.15,2013-02-04 03:23:00,
2013-02-03 22:29:00,26.1,21.6,30.20,WSW,252,2.0,3.0,83,0.00,,,0.01,Wunderground v.1.15,2013-02-04 03:29:00,
2013-02-03 22:35:00,26.0,21.5,30.20,WNW,285,2.0,5.0,83,0.00,,,0.01,Wunderground v.1.15,2013-02-04 03:35:00,
2013-02-03 22:45:00,25.4,21.0,30.19,West,276,2.0,2.0,83,0.00,,,0.01,Wunderground v.1.15,2013-02-04 03:45:00,
2013-02-03 22:51:00,25.0,20.6,30.19,WSW,245,1.0,1.0,83,0.00,,,0.01,Wunderground v.1.15,2013-02-04 03:51:00,
2013-02-03 22:56:00,24.6,20.2,30.19,WSW,255,1.0,1.0,83,0.00,,,0.01,Wunderground v.1.15,2013-02-04 03:56:00,
2013-02-03 23:02:00,24.4,20.0,30.19,WSW,252,1.0,1.0,83,0.00,,,0.01,Wunderground v.1.15,2013-02-04 04:02:00,
2013-02-03 23:07:00,24.1,20.0,30.19,West,265,1.0,1.0,84,0.00,,,0.01,Wunderground v.1.15,2013-02-04 04:07:00,
2013-02-03 23:13:00,23.7,19.6,30.19,WSW,244,0.0,0.0,84,0.00,,,0.01,Wunderground v.1.15,2013-02-04 04:13:00,
2013-02-03 23:18:00,23.1,19.0,30.19,WSW,245,0.0,0.0,84,0.00,,,0.01,Wunderground v.1.15,2013-02-04 04:18:00,
2013-02-03 23:24:00,22.5,18.9,30.18,WSW,245,0.0,0.0,86,0.00,,,0.01,Wunderground v.1.15,2013-02-04 04:24:00,
2013-02-03 23:30:00,22.2,18.7,30.18,SW,217,0.0,0.0,86,0.00,,,0.01,Wunderground v.1.15,2013-02-04 04:30:00,
2013-02-03 23:37:00,21.3,17.8,30.18,SW,217,0.0,0.0,86,0.00,,,0.01,Wunderground v.1.15,2013-02-04 04:37:00,
2013-02-03 23:42:00,20.9,17.9,30.18,SW,217,0.0,0.0,88,0.00,,,0.01,Wunderground v.1.15,2013-02-04 04:42:00,
2013-02-03 23:47:00,20.6,17.3,30.18,SW,217,0.0,0.0,87,0.00,,,0.01,Wunderground v.1.15,2013-02-04 04:47:00,
2013-02-03 23:53:00,20.0,17.0,30.19,SW,217,0.0,0.0,88,0.00,,,0.01,Wunderground v.1.15,2013-02-04 04:53:00,
2013-02-03 23:58:00,19.8,17.1,30.19,West,262,0.0,0.0,89,0.00,,,0.01,Wunderground v.1.15,2013-02-04 04:58:00,